AYAME 1 DEB

基本信息
目录编号:
38683
目录名称:
AYAME 1 DEB
国际标识:
1979-009F
轨道中心:
EARTH
物体状态:
在轨
发射日期:
1979-02-06 UTC
轨道信息
数据来源: 国际轨道数据
星历时间: 2024-03-15T00:15:05+0800
半长轴: 29713.794km
偏心率: 0.3728972
轨道倾角: 9.466°
近地点辐角: 95.312°
升交点赤经: 326.897°
平近点角: 307.177°
近地点: 12255.468km
远地点: 34415.85km
周期: 849.566分钟
每日圈数: 1.694984
详细信息
发射场:
TNSTA
轨道高度:
MEO
数据来源:
AOE Integration Group
参考系:
TEME
时间系统:
UTC
历元类型:
SGP4
2D轨道图
3D轨道图
轨道高度分析图
轨道倾角分析图
轨道综合分析图
查看轨道综合分析图